Location: Unspecified
(0.0000°N, 0.0000°E)
Time: 20:08:23
(UTC+00:00)

BlueWalker 3 - Pass Details

Date: 20 March 2023
Orbit: 497 x 514 km, 53.2° (Epoch: 29 March)

Event Time Altitude Azimuth Distance (km) Brightness Sun altitude
Rises 19:16:27 0° 197° (SSW) 2,622 5.8 -17.2°
Reaches altitude 10° 19:18:52 10° 185° (S) 1,733 4.7 -17.8°
Enters shadow 19:21:24 26° 149° (SSE) 1,028 3.2 -18.5°
